Meteo Giornale » Osservazioni meteo Stati Uniti (USA) » New York City Central Park

ore: 09:51 - Osservazioni Meteo New York City Central Park
Lat. 40° 47' N Lon. 73° 58' W Alt. 47 metri s.l.m.

sereno America/New_York

1 °C

Sereno

Temp. 24 Ore

-2 °C

3 °C

Nord

5.5 Km/h

Dew point -8 °C

Umidità 50 %

Visibilità  10 Km

Il sole sorge alle ore 07:06

Il sole tramonta alle ore 16:29

Data e Ora Cielo e Fenomeni T °C DP °C Um. % Pres. hPa Vis. km Vento km/h
Oggi h: 09:51 sereno Sereno 1 -8 50 1035 10 N 5.5
Oggi h: 08:51 sereno Sereno 0 -9 50 1035 10 N 0
Oggi h: 07:51 sereno Sereno -1 -8 58 1035 10 N 5.5
Oggi h: 06:51 sereno Sereno -2 -8 63 1034 10 N 0
Oggi h: 05:51 sereno Sereno -2 -8 63 1033 10 N 0
Oggi h: 04:51 sereno Sereno -2 -9 58 1033 10 N 0
Oggi h: 03:51 sereno Sereno -2 -9 58 1033 10 N 0
Oggi h: 02:51 sereno Sereno -2 -9 58 1034 10 N 5.5
Oggi h: 01:51 sereno Sereno -2 -9 58 1033 10 N 0
Oggi h: 00:51 sereno Sereno -1 -10 50 1033 10 N 0
Ieri h: 23:51 sereno Sereno -1 -10 50 1033 10 N 5.5
Ieri h: 22:51 sereno Sereno -1 -10 50 1033 10 N 0
Ieri h: 21:51 sereno Sereno 0 -10 46 1032 10 N 0
Ieri h: 20:51 sereno Sereno 0 -10 46 1032 10 N 0
Ieri h: 19:51 sereno Sereno 1 -10 43 1032 10 N 9.3
Ieri h: 18:51 sereno Sereno 1 -10 43 1031 10 O/NO 11.1
Ieri h: 17:51 sereno Sereno 2 -10 40 1031 10 N 9.3
Ieri h: 16:51 sereno Sereno 2 -10 40 1030 10 O/NO 11.1
Ieri h: 15:51 sereno Sereno 3 -11 34 1029 10 O/NO 9.3
Ieri h: 14:51 sereno Sereno 3 -11 34 1028 10 O 14.8
Ieri h: 13:51 sereno Sereno 3 -11 34 1028 10 N 16.7
Ieri h: 12:51 sereno Sereno 3 -11 34 1028 10 O/NO 16.7
Ieri h: 11:51 sereno Sereno 2 -10 40 1028 10 N 0
Ieri h: 10:51 sereno Sereno 2 -9 43 1028 10 N 9.3